Regional Weather Roundup
Issued by NWS

Home | Current Version | Previous Version | Graphics & Text | Print | Product List | Glossary On
Versions: 1 2 3 4 5 6 7 8 9 10 11 12 13 14 15 16 17 18 19 20 21 22 23 24 25 26 27 28 29 30 31 32 33 34 35 36 37 38 39 40 41 42 43 44 45 46 47 48 49 50
556
ASUS43 KLMK 290710
RWRKY
KENTUCKY REGIONAL WEATHER ROUNDUP
NATIONAL WEATHER SERVICE LOUISVILLE KY
300 AM EDT FRI APR 29 2016

NOTE "FAIR" INDICATES FEW OR NO CLOUDS BELOW 12,000 FEET
WITH NO SIGNIFICANT WEATHER AND/OR OBSTRUCTIONS TO VISIBILITY.

KYZ001>023-026-027-061>063-070>075-290800-
WESTERN AND SOUTH CENTRAL KENTUCKY

CITY           SKY/WX    TMP DP  RH WIND       PRES   REMARKS
PADUCAH        CLEAR     57  51  80 CALM      29.97F
HENDERSON      CLEAR     61  50  67 N6        29.99F
OWENSBORO      CLEAR     61  54  77 N3        30.00S
HOPKINSVILLE   CLEAR     60  52  74 CALM      29.98F
BOWLING GREEN  CLEAR     57  53  86 CALM      29.99F
GLASGOW        CLEAR     55  55 100 CALM      30.00S
$$

KYZ024-025-028>034-038-045-046-053-290800-
NORTH CENTRAL KENTUCKY

CITY           SKY/WX    TMP DP  RH WIND       PRES   REMARKS
LOUISVILLE/SDF CLEAR     61  50  67 W3        29.99R
LOUISVILLE/LOU CLEAR     60  51  72 NW3       29.99R
FORT KNOX      CLEAR     54  50  87 W3        29.98S
$$

KYZ035>037-039>044-047>052-055>060-089>105-290800-
NORTHEAST KENTUCKY

CITY           SKY/WX    TMP DP  RH WIND       PRES   REMARKS
LEXINGTON      CLEAR     58  48  69 W5        29.99R
COVINGTON      FOG       57  55  93 NW9       29.98R VSB 1/4
FRANKFORT      CLEAR     58  49  72 NW5       29.97S
$$

KYZ054-064>069-076>088-106>120-290800-
SOUTHEAST KENTUCKY

CITY           SKY/WX    TMP DP  RH WIND       PRES   REMARKS
JACKSON        CLEAR     61  50  67 W3        29.98S
LONDON         CLEAR     56  53  90 CALM      30.00S
SOMERSET       CLEAR     54  54 100 CALM      30.02S FOG
MIDDLESBORO    CLEAR     62  53  72 CALM      30.00R
MONTICELLO     SUNNY     53  52  96 CALM      30.03S
$$





USA.gov is the U.S. government's official web portal to all federal, state and local government web resources and services.